When you browse on this site, cookies collect data to enhance your experience and personalize the content and advertising you see.
Visit our Privacy Policy to learn more. By continuing to use the site, you agree to this use of cookies and data.
  • In Hungary
  • List of Countries
  • For 7 days
  • Water Temperature
  • Weather Map
  • News
  • Weather Widgets
  • user-avatar
    Login

    Hourly Weather Rawson

    Today, 4 June, Thursday

    Time Temperature Precipitation Wind Pressure Humidity
    00:00 +7°C° 0 mm 11 mps 759 mmHg 52%
    01:00 +7°C° 0 mm 10 mps 759 mmHg 52%
    02:00 +7°C° 0 mm 9 mps 758 mmHg 53%
    03:00 +6°C° 0 mm 9 mps 758 mmHg 53%
    04:00 +6°C° 0 mm 8 mps 757 mmHg 53%
    05:00 +6°C° 0 mm 7 mps 757 mmHg 53%
    06:00 +6°C° 0 mm 7 mps 757 mmHg 52%
    07:00 +8°C° 0 mm 6 mps 757 mmHg 51%
    08:00 +8°C° 0 mm 5 mps 757 mmHg 49%
    09:00 +10°C° 0 mm 6 mps 757 mmHg 41%
    10:00 +13°C° 0 mm 6 mps 757 mmHg 33%
    11:00 +15°C° 0 mm 7 mps 757 mmHg 26%
    12:00 +17°C° 0 mm 7 mps 757 mmHg 23%
    13:00 +18°C° 0 mm 8 mps 756 mmHg 21%
    14:00 +19°C° 0 mm 9 mps 756 mmHg 19%
    15:00 +18°C° 0 mm 8 mps 756 mmHg 21%
    16:00 +17°C° 0 mm 7 mps 756 mmHg 22%
    17:00 +16°C° 0 mm 6 mps 756 mmHg 24%
    18:00 +15°C° 0 mm 6 mps 756 mmHg 24%
    19:00 +15°C° 0 mm 6 mps 756 mmHg 24%
    20:00 +14°C° 0 mm 6 mps 756 mmHg 24%
    21:00 +14°C° 0 mm 6 mps 756 mmHg 25%
    22:00 +13°C° 0 mm 6 mps 756 mmHg 27%
    23:00 +13°C° 0 mm 6 mps 756 mmHg 28%

    Tomorrow, 5 June, Friday

    Time Temperature Precipitation Wind Pressure Humidity
    00:00 +13°C° 0 mm 5 mps 756 mmHg 28%
    01:00 +13°C° 0 mm 5 mps 756 mmHg 29%
    02:00 +13°C° 0 mm 5 mps 756 mmHg 29%
    03:00 +12°C° 0 mm 4 mps 756 mmHg 30%
    04:00 +12°C° 0 mm 4 mps 756 mmHg 31%
    05:00 +11°C° 0 mm 3 mps 756 mmHg 32%
    06:00 +11°C° 0 mm 3 mps 756 mmHg 33%
    07:00 +12°C° 0 mm 2 mps 755 mmHg 35%
    08:00 +10°C° 0 mm 2 mps 755 mmHg 36%
    09:00 +13°C° 0 mm 2 mps 755 mmHg 33%
    10:00 +14°C° 0 mm 3 mps 755 mmHg 30%
    11:00 +16°C° 0 mm 3 mps 755 mmHg 27%
    12:00 +18°C° 0 mm 4 mps 755 mmHg 26%
    13:00 +19°C° 0 mm 4 mps 754 mmHg 24%
    14:00 +20°C° 0 mm 5 mps 754 mmHg 22%
    15:00 +17°C° 0 mm 5 mps 754 mmHg 21%
    16:00 +16°C° 0 mm 5 mps 754 mmHg 21%
    17:00 +15°C° 0 mm 5 mps 754 mmHg 20%
    18:00 +15°C° 0 mm 5 mps 754 mmHg 21%
    19:00 +14°C° 0 mm 6 mps 754 mmHg 22%
    20:00 +12°C° 0 mm 7 mps 754 mmHg 22%
    21:00 +12°C° 0 mm 7 mps 754 mmHg 24%
    22:00 +11°C° 0 mm 6 mps 754 mmHg 25%
    23:00 +12°C° 0 mm 5 mps 755 mmHg 26%

    Day after tomorrow, 6 June, Saturday

    Time Temperature Precipitation Wind Pressure Humidity
    00:00 +11°C° 0 mm 6 mps 754 mmHg 27%
    01:00 +10°C° 0 mm 6 mps 754 mmHg 29%
    02:00 +10°C° 0 mm 7 mps 754 mmHg 30%
    03:00 +10°C° 0 mm 7 mps 753 mmHg 30%
    04:00 +10°C° 0 mm 7 mps 753 mmHg 31%
    05:00 +10°C° 0 mm 8 mps 752 mmHg 31%
    06:00 +10°C° 0 mm 7 mps 752 mmHg 31%
    07:00 +11°C° 0 mm 7 mps 751 mmHg 31%
    08:00 +11°C° 0 mm 7 mps 751 mmHg 32%
    09:00 +13°C° 0 mm 9 mps 750 mmHg 29%
    10:00 +14°C° 0 mm 10 mps 750 mmHg 26%
    11:00 +17°C° 0 mm 12 mps 750 mmHg 23%
    12:00 +18°C° 0 mm 13 mps 750 mmHg 24%
    13:00 +19°C° 0 mm 14 mps 750 mmHg 24%
    14:00 +19°C° 0 mm 15 mps 750 mmHg 25%
    15:00 +18°C° 0 mm 13 mps 751 mmHg 26%
    16:00 +17°C° 0 mm 11 mps 752 mmHg 28%
    17:00 +14°C° 0 mm 10 mps 752 mmHg 30%
    18:00 +13°C° 0 mm 9 mps 754 mmHg 32%
    19:00 +12°C° 0 mm 8 mps 755 mmHg 35%
    20:00 +11°C° 0 mm 8 mps 756 mmHg 37%
    21:00 +10°C° 0 mm 7 mps 756 mmHg 37%
    22:00 +9°C° 0 mm 7 mps 757 mmHg 38%
    23:00 +8°C° 0 mm 6 mps 758 mmHg 38%

    7 June, Sunday

    Time Temperature Precipitation Wind Pressure Humidity
    00:00 +8°C° 0 mm 6 mps 758 mmHg 40%
    01:00 +8°C° 0 mm 6 mps 758 mmHg 42%
    02:00 +7°C° 0 mm 6 mps 759 mmHg 44%
    03:00 +7°C° 0 mm 6 mps 759 mmHg 43%
    04:00 +7°C° 0 mm 6 mps 759 mmHg 42%
    05:00 +5°C° 0 mm 6 mps 759 mmHg 41%
    06:00 +6°C° 0 mm 5 mps 759 mmHg 41%
    07:00 +6°C° 0 mm 5 mps 759 mmHg 40%
    08:00 +6°C° 0 mm 5 mps 759 mmHg 40%
    09:00 +7°C° 0 mm 5 mps 759 mmHg 36%
    10:00 +9°C° 0 mm 6 mps 759 mmHg 33%
    11:00 +11°C° 0 mm 7 mps 759 mmHg 30%
    12:00 +12°C° 0 mm 7 mps 758 mmHg 27%
    13:00 +13°C° 0 mm 8 mps 757 mmHg 24%
    14:00 +15°C° 0 mm 8 mps 756 mmHg 21%
    15:00 +15°C° 0 mm 8 mps 756 mmHg 26%
    16:00 +14°C° 0 mm 7 mps 755 mmHg 31%
    17:00 +13°C° 0 mm 6 mps 755 mmHg 35%
    18:00 +12°C° 0 mm 7 mps 755 mmHg 38%
    19:00 +11°C° 0 mm 8 mps 755 mmHg 40%
    20:00 +11°C° 0 mm 9 mps 755 mmHg 43%
    21:00 +10°C° 0 mm 9 mps 754 mmHg 43%
    22:00 +10°C° 0 mm 9 mps 754 mmHg 44%
    23:00 +8°C° 0 mm 9 mps 754 mmHg 45%

    8 June, Monday

    Time Temperature Precipitation Wind Pressure Humidity
    00:00 +8°C° 0 mm 9 mps 753 mmHg 46%
    01:00 +9°C° 0 mm 8 mps 753 mmHg 47%
    02:00 +7°C° 0 mm 8 mps 752 mmHg 48%
    03:00 +7°C° 0 mm 8 mps 752 mmHg 47%
    04:00 +8°C° 0 mm 7 mps 752 mmHg 45%
    05:00 +6°C° 0 mm 7 mps 751 mmHg 44%
    06:00 +6°C° 0 mm 7 mps 751 mmHg 44%
    07:00 +7°C° 0 mm 6 mps 751 mmHg 44%
    08:00 +7°C° 0 mm 6 mps 751 mmHg 44%
    09:00 +9°C° 0 mm 8 mps 750 mmHg 40%
    10:00 +11°C° 0 mm 10 mps 750 mmHg 36%
    11:00 +12°C° 0 mm 11 mps 750 mmHg 33%
    12:00 +12°C° 0 mm 11 mps 750 mmHg 34%
    13:00 +12°C° 0 mm 11 mps 750 mmHg 35%
    14:00 +12°C° 0 mm 12 mps 750 mmHg 36%
    15:00 +12°C° 0 mm 11 mps 751 mmHg 36%
    16:00 +11°C° 0 mm 10 mps 751 mmHg 37%
    17:00 +10°C° 0 mm 9 mps 752 mmHg 37%
    18:00 +8°C° 0 mm 9 mps 753 mmHg 37%
    19:00 +9°C° 0 mm 8 mps 753 mmHg 36%
    20:00 +7°C° 0 mm 8 mps 754 mmHg 36%
    21:00 +8°C° 0 mm 7 mps 754 mmHg 38%
    22:00 +6°C° 0 mm 7 mps 754 mmHg 41%
    23:00 +5°C° 0 mm 7 mps 754 mmHg 43%

    9 June, Tuesday

    Time Temperature Precipitation Wind Pressure Humidity
    00:00 +5°C° 0 mm 7 mps 754 mmHg 43%
    01:00 +5°C° 0 mm 7 mps 754 mmHg 44%
    02:00 +5°C° 0 mm 8 mps 753 mmHg 44%
    03:00 +5°C° 0 mm 8 mps 753 mmHg 45%
    04:00 +5°C° 0 mm 8 mps 752 mmHg 45%
    05:00 +5°C° 0 mm 9 mps 751 mmHg 46%
    06:00 +6°C° 0 mm 9 mps 751 mmHg 46%
    07:00 +6°C° 0 mm 10 mps 750 mmHg 46%
    08:00 +6°C° 0 mm 10 mps 749 mmHg 45%
    09:00 +8°C° 0 mm 11 mps 749 mmHg 42%
    10:00 +9°C° 0 mm 12 mps 748 mmHg 39%
    11:00 +12°C° 0 mm 13 mps 747 mmHg 35%
    12:00 +12°C° 0 mm 13 mps 747 mmHg 33%
    13:00 +13°C° 0 mm 14 mps 746 mmHg 31%
    14:00 +14°C° 0 mm 14 mps 745 mmHg 30%
    15:00 +13°C° 0 mm 12 mps 745 mmHg 33%
    16:00 +12°C° 0 mm 10 mps 745 mmHg 37%
    17:00 +12°C° 0 mm 8 mps 745 mmHg 40%
    18:00 +11°C° 0 mm 8 mps 745 mmHg 40%
    19:00 +9°C° 0 mm 8 mps 745 mmHg 39%
    20:00 +7°C° 0 mm 8 mps 745 mmHg 39%
    21:00 +7°C° 0 mm 9 mps 745 mmHg 43%
    22:00 +7°C° 0 mm 11 mps 745 mmHg 47%
    23:00 +5°C° 0 mm 13 mps 746 mmHg 51%
    Show more